Hourly Data Report for May 21, 2006

TORONTO CITY
ONTARIO

43°40'00.000" N
79°24'00.000" W
112.50 m
6158355
71508
XTO

Download Data

Hourly Data (May 2006)
Hourly Data Report for May 21, 2006
TIME
LST
Temp Definition
°C
Dew Point Definition
°C
Rel Hum Definition
%
Precip. Amount Definition
mm

Wind Dir Definition
10's deg

Wind Spd Definition
km/h
Visibility Definition
km
Stn Press Definition
kPa
Hmdx Definition


Wind Chill Definition


Weather Definition


00:00 12.8 7.6 71   LegendMM LegendMM   98.95     LegendNANA
01:00 14.0 8.5 69   LegendMM LegendMM   98.84     LegendNANA
02:00 13.3 9.5 78   LegendMM LegendMM   98.75     LegendNANA
03:00 9.8 5.7 76   LegendMM LegendMM   98.85     LegendNANA
04:00 6.9 2.7 75   LegendMM LegendMM   98.90     LegendNANA
05:00 5.9 2.3 78   LegendMM LegendMM   98.86     LegendNANA
06:00 6.3 2.4 76   LegendMM LegendMM   98.87     LegendNANA
07:00 7.0 1.9 70   LegendMM LegendMM   98.90     LegendNANA
08:00 7.1 0.6 63   LegendMM LegendMM   98.92     LegendNANA
09:00 7.8 0.6 60   LegendMM LegendMM   98.87     LegendNANA
10:00 7.7 3.3 74   LegendMM LegendMM   98.87     LegendNANA
11:00 10.0 2.4 59   LegendMM LegendMM   98.86     LegendNANA
12:00 8.9 3.4 68   LegendMM LegendMM   98.91     LegendNANA
13:00 9.8 3.5 65   LegendMM LegendMM   98.96     LegendNANA
14:00 7.5 4.3 80   LegendMM LegendMM   99.15     LegendNANA
15:00 8.6 2.6 66   LegendMM LegendMM   99.24     LegendNANA
16:00 8.9 2.6 65   LegendMM LegendMM   99.34     LegendNANA
17:00 8.9 4.1 72   LegendMM LegendMM   99.48     LegendNANA
18:00 8.1 4.6 79   LegendMM LegendMM   99.56     LegendNANA
19:00 8.4 4.3 75   LegendMM LegendMM   99.64     LegendNANA
20:00 7.4 3.9 78   LegendMM LegendMM   99.72     LegendNANA
21:00 6.7 4.4 85   LegendMM LegendMM   99.80     LegendNANA
22:00 6.5 4.7 88   LegendMM LegendMM   99.87     LegendNANA
23:00 6.4 5.0 91   LegendMM LegendMM   99.92     LegendNANA

Notes on Data Quality.

Legend

  • E = Estimated
  • M = Missing
  • NA = Not Available*
  • [empty] = Indicates an unobserved value
Date modified: